MAZAALAI (NUMSAT-1)

Last updated on Sun May 12 2019 03:06:30 GMT+0000 (Coordinated Universal Time)

1 42822U 98067MW 19131.43194823 .10190864 12355-4 76666-3 0 9990 2 42822 51.6054 100.7046 0005179 246.5694 204.7401 16.39672911105736

Satellite not in orbit